This is the latest recevied weather packets stored in our database for station/object KC5CAM-13. If no packets are shown the sender has not sent any weather packets the latest 10 day(s).
| Time | Temp. | Humidity | Pressure | Rain* | Wind** | Luminosity | Snow |
|---|---|---|---|---|---|---|---|
| 1777682236 | 16.67° C | 73% | 1017.5 hPa | 0 mm | - | 16 W/m² | - |
| 1777681933 | 16.67° C | 72% | 1017.2 hPa | 0 mm | - | 13 W/m² | - |
| 1777681628 | 16.67° C | 71% | 1017.4 hPa | 0 mm | - | 16 W/m² | - |
| 1777681327 | 16.67° C | 71% | 1017.3 hPa | 0 mm | - | 16 W/m² | - |
| 1777681024 | 17.22° C | 71% | 1017.2 hPa | 0 mm | - | 16 W/m² | - |
| 1777680721 | 17.22° C | 70% | 1017.1 hPa | 0 mm | - | 17 W/m² | - |
| 1777680419 | 17.22° C | 70% | 1017.1 hPa | 0 mm | - | 19 W/m² | - |
| 1777680117 | 17.78° C | 70% | 1016.9 hPa | 0 mm | - | 24 W/m² | - |
| 1777679812 | 17.78° C | 68% | 1016.9 hPa | 0 mm | - | 24 W/m² | - |
| 1777679508 | 17.78° C | 65% | 1016.6 hPa | 0 mm | - | 30 W/m² | - |
| 1777679204 | 17.78° C | 64% | 1016.6 hPa | 0 mm | - | 33 W/m² | - |
| 1777678901 | 17.78° C | 63% | 1016.5 hPa | 0 mm | - | 40 W/m² | - |
| 1777678599 | 18.33° C | 63% | 1016.6 hPa | 0 mm | - | 52 W/m² | - |
| 1777678296 | 18.33° C | 64% | 1016.4 hPa | 0 mm | - | 60 W/m² | - |
| 1777677992 | 17.78° C | 64% | 1016.5 hPa | 0 mm | - | 68 W/m² | - |
| 1777677690 | 18.33° C | 66% | 1016.4 hPa | 0 mm | - | 65 W/m² | - |
| 1777677387 | 18.33° C | 66% | 1016.5 hPa | 0 mm | - | 65 W/m² | - |
| 1777677085 | 18.33° C | 64% | 1016.7 hPa | 0 mm | - | 61 W/m² | - |
| 1777676784 | 18.33° C | 65% | 1016.5 hPa | 0 mm | - | 73 W/m² | - |
| 1777676482 | 18.33° C | 63% | 1016.3 hPa | 0 mm | - | 79 W/m² | - |
| 1777676179 | 18.33° C | 64% | 1016.5 hPa | 0 mm | - | 69 W/m² | - |
| 1777675875 | 17.78° C | 61% | 1016.5 hPa | 0 mm | - | 67 W/m² | - |
| 1777675572 | 18.33° C | 64% | 1016.4 hPa | 0 mm | - | 65 W/m² | - |
| 1777675269 | 18.33° C | 64% | 1016.5 hPa | 0 mm | - | 82 W/m² | - |
| 1777674966 | 18.33° C | 65% | 1016.3 hPa | 0 mm | - | 104 W/m² | - |
* Rain latest hour (hover to see other rain measurements)
** Current wind speed in m/s (hover to see current wind gust speed)